Home   Weather   Chicago   Past weeks
Flag for USA

Past Weather in Chicago, Illinois, USA — January 2019

Now
29 °F

Scattered clouds.


Feels Like: 19 °F
Forecast: 28 / 19 °F
Wind: 13 mph from Northwest

Location: Chicago Midway Airport

Current Time: Feb 28, 2020 at 4:52:36 pm

Latest Report: Feb 28, 2020 at 3:53 pm


Visibility: 10 mi

Pressure: 30.08 "Hg

Humidity: 39%

Dew Point: 7 °F

Location of ChicagoLocation

January 2019 Weather in Chicago — Graph

°F

High & Low Weather Summary for January 2019

 TemperatureHumidityPressure
High55 °F (Jan 7, 3:25 pm)100% (Jan 23, 12:53 am)30.64 "Hg (Jan 23, 12:53 am)
Low-21 °F (Jan 30, 6:53 am)38% (Jan 8, 2:53 pm)29.50 "Hg (Jan 28, 10:20 am)
Average23 °F75%30.13 "Hg
* Reported Jan 1 12:53 am — Jan 31 11:53 pm, Chicago. Weather by CustomWeather, © 2020

Note: Actual official high and low records may vary slightly from our data, if they occured in-between our weather recording intervals... More about our weather records

Chicago Weather History for January 1, 2019

Scroll right to see more
 ConditionsComfort  
Time TempWeatherWind HumidityBarometerVisibility
12:53 am
Tue, Jan 1
36 °FMostly cloudy.10 mph89%30.00 "Hg10 mi
1:53 am36 °FMostly cloudy.13 mph85%30.06 "Hg10 mi
2:53 am35 °FMostly cloudy.9 mph88%30.10 "Hg8 mi
3:53 am34 °FLight snow. Overcast.10 mph88%30.14 "Hg7 mi
4:12 am34 °FLight snow. Overcast.10 mph88%30.12 "Hg7 mi
4:53 am33 °FLight snow. Fog.7 mph92%30.16 "Hg5 mi
5:53 am32 °FLight snow. Ice fog.12 mph88%30.20 "Hg5 mi
6:53 am31 °FIce fog.15 mph85%30.25 "Hg6 mi
7:18 am31 °FOvercast.15 mph82%30.23 "Hg7 mi
7:53 am31 °FOvercast.12 mph82%30.27 "Hg10 mi
8:53 am31 °FOvercast.9 mph85%30.30 "Hg10 mi
9:53 am31 °FLight snow. Overcast.9 mph85%30.32 "Hg7 mi
10:53 am31 °FLight snow. Ice fog.9 mph89%30.32 "Hg6 mi
11:53 am31 °FLight snow. Overcast.12 mph89%30.32 "Hg7 mi
12:53 pm30 °FLight snow. Overcast.10 mph85%30.32 "Hg8 mi
1:53 pm29 °FLight snow. Overcast.8 mph85%30.32 "Hg7 mi
2:53 pm29 °FLight snow. Overcast.8 mph85%30.32 "Hg8 mi
3:53 pm29 °FLight snow. Overcast.8 mph85%30.34 "Hg8 mi
4:53 pm28 °FLight snow. Mostly cloudy.6 mph85%30.35 "Hg9 mi
5:53 pm28 °FLight snow. Overcast.7 mph85%30.36 "Hg9 mi
6:53 pm28 °FLight snow. Overcast.7 mph85%30.37 "Hg8 mi
7:53 pm28 °FLight snow. Mostly cloudy.5 mph85%30.36 "Hg9 mi
9:33 pm27 °FLight snow. Ice fog.5 mph89%30.31 "Hg2 mi
10:00 pm27 °FLight snow. Ice fog.5 mph89%30.30 "Hg3 mi
10:53 pm28 °FLight snow. Ice fog.6 mph89%30.33 "Hg5 mi
11:53 pm28 °FLight snow. Ice fog.No wind89%30.32 "Hg6 mi
Weather by CustomWeather, © 2020

See weather overview

Advertising